Storm Lake, IA

4:54 PM CDT on April 23, 2018 (GMT -0500)
Storm Lake Municipal

Weather History for KSLB - November, 2012

Change the Weather History Date:

Monday, November 26, 2012

  Actual Average Record
Temperature  
Mean Temperature 21 °F -  
Max Temperature 30 °F 39 °F 66 °F (1998)
Min Temperature 12 °F 24 °F -5 °F (1996)
Degree Days  
Heating Degree Days 44    
Moisture  
Dew Point 10 °F    
Average Humidity 63    
Maximum Humidity 80    
Minimum Humidity 46    
Precipitation  
Precipitation 0.00 in - - ()
Sea Level Pressure  
Sea Level Pressure 30.33 in    
Wind  
Wind Speed 10 mph (NNW)    
Max Wind Speed 22 mph    
Max Gust Speed 26 mph    
Visibility 10 miles    
Events      
Averages and records for this station are not official NWS values.
T = Trace of Precipitation, MM = Missing Value Source: NWS Daily Summary

Daily Weather History Graph

Daily Weather History Graph

Search for Another Location

Airport or City:

Astronomy

Nov. 26, 2012 Rise Set
Actual Time 7:26 AM CST 4:50 PM CST
Civil Twilight 6:55 AM CST 5:21 PM CST
Nautical Twilight 6:20 AM CST 5:56 PM CST
Astronomical Twilight 5:46 AM CST 6:30 PM CST
Moon 3:44 PM CST (11/26) 5:35 AM CST (11/26)
Length of Visible Light 10h 26m
Length of Day
9h 24m
Waxing Gibbous, 97% of the Moon is Illuminated
Nov 26
Waxing Gibbous
Nov 28
Full
Dec 6
Last Quarter
Dec 13
New
Dec 19
First Quarter

Hourly Weather History & Observations

Time (CST) Temp. Windchill Dew Point Humidity Pressure Visibility Wind Dir Wind Speed Gust Speed Precip Events Conditions
12:15 AM 30.2 °F 24.3 °F 23.0 °F 75% 30.16 in 10.0 mi NNE 5.8 mph - N/A   Overcast
12:35 AM 28.4 °F 23.3 °F 23.0 °F 80% 30.16 in 10.0 mi North 4.6 mph - N/A   Overcast
12:55 AM 28.4 °F 23.3 °F 23.0 °F 80% 30.17 in 10.0 mi North 4.6 mph - N/A   Overcast
1:15 AM 30.2 °F 20.8 °F 23.0 °F 75% 30.17 in 10.0 mi North 11.5 mph - N/A   Overcast
1:35 AM 28.4 °F 18.5 °F 23.0 °F 80% 30.18 in 10.0 mi North 11.5 mph - N/A   Overcast
1:55 AM 28.4 °F 19.1 °F 21.2 °F 74% 30.18 in 10.0 mi NNE 10.4 mph - N/A   Overcast
2:15 AM 28.4 °F 19.7 °F 19.4 °F 69% 30.19 in 10.0 mi NNE 9.2 mph - N/A   Overcast
2:35 AM 28.4 °F 19.1 °F 21.2 °F 74% 30.19 in - NE 10.4 mph - N/A   Overcast
2:55 AM 26.6 °F 16.8 °F 19.4 °F 74% 30.20 in 10.0 mi NE 10.4 mph - N/A   Overcast
3:15 AM 26.6 °F 15.2 °F 17.6 °F 69% 30.21 in 10.0 mi NE 13.8 mph - N/A   Overcast
3:35 AM 26.6 °F 16.2 °F 17.6 °F 69% 30.20 in 10.0 mi NNE 11.5 mph - N/A   Overcast
3:55 AM 26.6 °F 17.5 °F 17.6 °F 69% 30.21 in 10.0 mi NE 9.2 mph - N/A   Overcast
4:15 AM 26.6 °F 16.8 °F 17.6 °F 69% 30.21 in 10.0 mi NNE 10.4 mph - N/A   Overcast
4:35 AM 26.6 °F 17.5 °F 17.6 °F 69% 30.22 in 10.0 mi NNE 9.2 mph - N/A   Overcast
4:55 AM 26.6 °F 15.7 °F 17.6 °F 69% 30.22 in 10.0 mi NNE 12.7 mph - N/A   Overcast
5:15 AM 26.6 °F 15.7 °F 17.6 °F 69% 30.22 in 10.0 mi NNE 12.7 mph - N/A   Overcast
5:35 AM 26.6 °F 16.8 °F 17.6 °F 69% 30.23 in 10.0 mi North 10.4 mph - N/A   Overcast
5:55 AM 24.8 °F 11.9 °F 17.6 °F 74% 30.25 in 10.0 mi North 16.1 mph - N/A   Overcast
6:15 AM 23.0 °F 10.6 °F 15.8 °F 74% 30.25 in 10.0 mi North 13.8 mph 20.7 mph N/A   Overcast
6:35 AM 21.2 °F 8.9 °F 14.0 °F 74% 30.27 in 10.0 mi North 12.7 mph 20.7 mph N/A   Overcast
6:55 AM 21.2 °F 6.8 °F 12.2 °F 68% 30.29 in 10.0 mi North 17.3 mph - N/A   Overcast
7:15 AM 21.2 °F 8.3 °F 12.2 °F 68% 30.30 in 10.0 mi North 13.8 mph 20.7 mph N/A   Overcast
7:35 AM 19.4 °F 5.0 °F 10.4 °F 68% 30.30 in 10.0 mi North 16.1 mph 24.2 mph N/A   Overcast
7:55 AM 19.4 °F 3.6 °F 10.4 °F 68% 30.32 in 10.0 mi North 19.6 mph - N/A   Overcast
8:15 AM 19.4 °F 4.1 °F 10.4 °F 68% 30.34 in 10.0 mi North 18.4 mph - N/A   Overcast
8:35 AM 19.4 °F 5.5 °F 8.6 °F 63% 30.34 in 10.0 mi North 15.0 mph 21.9 mph N/A   Overcast
8:55 AM 19.4 °F 3.6 °F 6.8 °F 58% 30.35 in 10.0 mi North 19.6 mph 26.5 mph N/A   Overcast
9:15 AM 17.6 °F 0.5 °F 6.8 °F 63% 30.36 in 10.0 mi North 21.9 mph - N/A   Overcast
9:35 AM 17.6 °F 1.3 °F 6.8 °F 63% 30.37 in 10.0 mi North 19.6 mph 25.3 mph N/A   Overcast
9:55 AM 17.6 °F 3.2 °F 6.8 °F 63% 30.38 in 10.0 mi North 15.0 mph 23.0 mph N/A   Mostly Cloudy
10:15 AM 17.6 °F 1.7 °F 6.8 °F 63% 30.38 in 10.0 mi North 18.4 mph - N/A   Partly Cloudy
10:35 AM 17.6 °F 2.7 °F 6.8 °F 63% 30.40 in 10.0 mi North 16.1 mph 23.0 mph N/A   Clear
10:55 AM 19.4 °F 5.5 °F 6.8 °F 58% 30.40 in 10.0 mi North 15.0 mph 21.9 mph N/A   Clear
11:15 AM 19.4 °F 5.0 °F 6.8 °F 58% 30.41 in 10.0 mi North 16.1 mph - N/A   Clear
11:35 AM 19.4 °F 5.0 °F 5.0 °F 54% 30.41 in - North 16.1 mph 24.2 mph N/A   Clear
11:55 AM 19.4 °F 6.0 °F 6.8 °F 58% 30.40 in 10.0 mi NNW 13.8 mph - N/A   Clear
12:15 PM 19.4 °F 5.5 °F 6.8 °F 58% 30.40 in 10.0 mi NNW 15.0 mph - N/A   Clear
12:35 PM 21.2 °F 7.8 °F 6.8 °F 54% 30.39 in 10.0 mi North 15.0 mph - N/A   Clear
12:55 PM 21.2 °F 9.5 °F 5.0 °F 50% 30.39 in 10.0 mi NNW 11.5 mph - N/A   Clear
1:15 PM 21.2 °F 8.9 °F 6.8 °F 54% 30.39 in 10.0 mi North 12.7 mph - N/A   Clear
1:35 PM 23.0 °F 11.7 °F 6.8 °F 50% 30.38 in 10.0 mi NNW 11.5 mph - N/A   Clear
1:55 PM 23.0 °F 12.4 °F 6.8 °F 50% 30.38 in 10.0 mi NNW 10.4 mph 17.3 mph N/A   Clear
2:15 PM 23.0 °F 11.1 °F 6.8 °F 50% 30.38 in 10.0 mi NNW 12.7 mph - N/A   Clear
2:35 PM 24.8 °F 13.4 °F 6.8 °F 46% 30.37 in 10.0 mi NNW 12.7 mph - N/A   Clear
2:55 PM 24.8 °F 14.6 °F 6.8 °F 46% 30.37 in 10.0 mi NNW 10.4 mph - N/A   Clear
3:15 PM 24.8 °F 14.0 °F 6.8 °F 46% 30.37 in 10.0 mi NNW 11.5 mph - N/A   Clear
3:35 PM 24.8 °F 14.6 °F 6.8 °F 46% 30.37 in 10.0 mi NNW 10.4 mph - N/A   Clear
3:55 PM 23.0 °F 13.1 °F 6.8 °F 50% 30.37 in 10.0 mi NW 9.2 mph - N/A   Clear
4:15 PM 23.0 °F 13.1 °F 6.8 °F 50% 30.38 in 10.0 mi NNW 9.2 mph - N/A   Clear
4:35 PM 21.2 °F 11.7 °F 6.8 °F 54% 30.37 in 10.0 mi NNW 8.1 mph - N/A   Clear
4:55 PM 19.4 °F 10.4 °F 5.0 °F 54% 30.37 in 10.0 mi NNW 6.9 mph - N/A   Clear
5:15 PM 19.4 °F 10.4 °F 5.0 °F 54% 30.38 in 10.0 mi NW 6.9 mph - N/A   Clear
5:35 PM 19.4 °F 9.5 °F 5.0 °F 54% 30.39 in 10.0 mi NW 8.1 mph - N/A   Clear
5:55 PM 19.4 °F 9.5 °F 6.8 °F 58% 30.39 in 10.0 mi NW 8.1 mph - N/A   Clear
6:15 PM 19.4 °F 11.5 °F 6.8 °F 58% 30.40 in 10.0 mi NW 5.8 mph - N/A   Clear
6:35 PM 19.4 °F 11.5 °F 6.8 °F 58% 30.39 in 10.0 mi NW 5.8 mph - N/A   Clear
6:55 PM 19.4 °F 11.5 °F 6.8 °F 58% 30.39 in 10.0 mi NW 5.8 mph - N/A   Clear
7:15 PM 17.6 °F 9.3 °F 6.8 °F 63% 30.39 in 10.0 mi NW 5.8 mph - N/A   Clear
7:35 PM 19.4 °F 11.5 °F 6.8 °F 58% 30.39 in 10.0 mi NW 5.8 mph - N/A   Clear
7:55 PM 17.6 °F 9.3 °F 5.0 °F 58% 30.40 in 10.0 mi WNW 5.8 mph - N/A   Clear
8:15 PM 17.6 °F 9.3 °F 6.8 °F 63% 30.39 in 10.0 mi WNW 5.8 mph - N/A   Clear
8:35 PM 17.6 °F 9.3 °F 6.8 °F 63% 30.39 in 10.0 mi West 5.8 mph - N/A   Clear
8:55 PM 17.6 °F 8.2 °F 6.8 °F 63% 30.38 in 10.0 mi West 6.9 mph - N/A   Clear
9:15 PM 15.8 °F 6.1 °F 6.8 °F 68% 30.38 in 10.0 mi West 6.9 mph - N/A   Clear
9:35 PM 15.8 °F 7.2 °F 6.8 °F 68% 30.39 in 10.0 mi WSW 5.8 mph - N/A   Clear
9:55 PM 15.8 °F 7.2 °F 6.8 °F 68% 30.39 in 10.0 mi SW 5.8 mph - N/A   Clear
10:15 PM 14.0 °F 6.5 °F 5.0 °F 67% 30.38 in 10.0 mi WSW 4.6 mph - N/A   Clear
10:35 PM 15.8 °F 7.2 °F 6.8 °F 68% 30.38 in 10.0 mi WSW 5.8 mph - N/A   Clear
10:55 PM 15.8 °F 8.6 °F 6.8 °F 68% 30.38 in 10.0 mi WSW 4.6 mph - N/A   Clear
11:15 PM 12.2 °F 2.9 °F 5.0 °F 73% 30.37 in 10.0 mi SW 5.8 mph - N/A   Clear
11:35 PM 12.2 °F 2.9 °F 6.8 °F 79% 30.37 in 10.0 mi SW 5.8 mph - N/A   Clear
11:55 PM 12.2 °F 1.7 °F 5.0 °F 73% 30.37 in 10.0 mi SW 6.9 mph - N/A   Clear